SAS42C ENHD-ENGM

Flight info

Callsign SAS42C
Flight time 0h 50m
Altitude 29000
Route ODINU DCT BOBGA DCT ADOPI
Aircraft A20N/M-SDE2E3FGHIRWXY/LB1

Departure

Time 2026-05-06 17:52
Airport Haugesund Airport, Karmøy (ENHD)

Arrival

Time 2026-05-06 18:42
Airport Oslo-Gardermoen International Airport (ENGM)
Time Latitude Longitude Altitude Speed Heading
2026-05-06 17:31 59.34450 5.21557 89 ft 0 kts 44°
2026-05-06 17:43 59.34449 5.21556 87 ft 2 kts 44°
2026-05-06 17:43 59.34434 5.21528 91 ft 4 kts 50°
2026-05-06 17:43 59.34422 5.21485 89 ft 4 kts 92°
2026-05-06 17:44 59.34428 5.21452 88 ft 0 kts 140°
2026-05-06 17:46 59.34407 5.21488 91 ft 8 kts 138°
2026-05-06 17:47 59.34351 5.21595 87 ft 14 kts 133°
2026-05-06 17:47 59.34280 5.21759 88 ft 10 kts 122°
2026-05-06 17:47 59.34234 5.21890 90 ft 12 kts 135°
2026-05-06 17:47 59.34157 5.21908 91 ft 13 kts 223°
2026-05-06 17:48 59.34146 5.21887 89 ft 0 kts 223°
2026-05-06 17:49 59.34142 5.21880 89 ft 4 kts 223°
2026-05-06 17:49 59.34107 5.21816 86 ft 10 kts 219°
2026-05-06 17:49 59.34032 5.21852 87 ft 14 kts 134°
2026-05-06 17:49 59.33953 5.22012 93 ft 17 kts 134°
2026-05-06 17:50 59.33861 5.22197 97 ft 20 kts 134°
2026-05-06 17:50 59.33793 5.22338 97 ft 12 kts 125°
2026-05-06 17:50 59.33765 5.22388 98 ft 1 kts 242°
2026-05-06 17:50 59.33770 5.22367 98 ft 4 kts 291°
2026-05-06 17:51 59.33786 5.22323 97 ft 0 kts 309°
2026-05-06 17:51 59.33877 5.22127 95 ft 67 kts 313°
2026-05-06 17:51 59.34426 5.21013 116 ft 151 kts 313°
2026-05-06 17:52 59.34945 5.19966 544 ft 164 kts 313°
2026-05-06 17:52 59.35764 5.18307 1421 ft 179 kts 314°
2026-05-06 17:52 59.36658 5.16502 2335 ft 193 kts 315°
2026-05-06 17:52 59.37689 5.14602 3058 ft 215 kts 323°
2026-05-06 17:53 59.39082 5.13455 4044 ft 222 kts 351°
2026-05-06 17:53 59.40628 5.13848 5062 ft 231 kts 20°
2026-05-06 17:53 59.41902 5.15818 6023 ft 240 kts 51°
2026-05-06 17:53 59.42655 5.18811 6977 ft 249 kts 66°
2026-05-06 17:54 59.43212 5.22061 7915 ft 253 kts 70°
2026-05-06 17:54 59.43743 5.25380 8878 ft 255 kts 69°
2026-05-06 17:54 59.44285 5.28635 9852 ft 253 kts 69°
2026-05-06 17:54 59.44849 5.31891 10756 ft 250 kts 68°
2026-05-06 17:55 59.45431 5.35116 11686 ft 250 kts 67°
2026-05-06 17:55 59.46030 5.38341 12643 ft 253 kts 66°
2026-05-06 17:55 59.46648 5.41629 13643 ft 261 kts 66°
2026-05-06 17:55 59.47307 5.45114 14226 ft 291 kts 66°
2026-05-06 17:56 59.48072 5.49154 14373 ft 337 kts 67°
2026-05-06 17:56 59.48932 5.53753 14525 ft 377 kts 68°
2026-05-06 17:56 59.49856 5.58752 15099 ft 395 kts 68°
2026-05-06 17:56 59.50792 5.63853 16260 ft 398 kts 68°
2026-05-06 17:57 59.51731 5.68966 17231 ft 407 kts 68°
2026-05-06 17:57 59.52705 5.74267 18202 ft 415 kts 68°
2026-05-06 17:57 59.53696 5.79666 19101 ft 423 kts 68°
2026-05-06 17:57 59.54701 5.85162 19960 ft 429 kts 68°
2026-05-06 17:58 59.55717 5.90733 20805 ft 436 kts 68°
2026-05-06 17:58 59.56750 5.96413 21675 ft 443 kts 68°
2026-05-06 17:58 59.57796 6.02180 22516 ft 450 kts 68°
2026-05-06 17:58 59.58853 6.08030 23366 ft 456 kts 68°
2026-05-06 17:59 59.59927 6.13990 24056 ft 463 kts 68°
2026-05-06 17:59 59.61012 6.20024 24479 ft 468 kts 68°
2026-05-06 17:59 59.62098 6.26084 24598 ft 469 kts 68°
2026-05-06 17:59 59.63184 6.32169 24705 ft 470 kts 69°
2026-05-06 18:00 59.64270 6.38277 24808 ft 471 kts 69°
2026-05-06 18:00 59.65355 6.44398 24921 ft 472 kts 69°
2026-05-06 18:00 59.66421 6.50433 25015 ft 472 kts 69°
2026-05-06 18:00 59.67505 6.56581 25017 ft 471 kts 69°
2026-05-06 18:01 59.68665 6.62600 25024 ft 467 kts 63°
2026-05-06 18:01 59.70083 6.68395 25022 ft 468 kts 61°
2026-05-06 18:01 59.71511 6.74181 25095 ft 467 kts 61°
2026-05-06 18:01 59.72960 6.80065 25161 ft 483 kts 61°
2026-05-06 18:02 59.74435 6.86085 25953 ft 485 kts 62°
2026-05-06 18:02 59.75908 6.92130 26688 ft 489 kts 62°
2026-05-06 18:02 59.77390 6.98237 27304 ft 495 kts 63°
2026-05-06 18:02 59.78894 7.04454 27906 ft 501 kts 63°
2026-05-06 18:03 59.80390 7.10660 28471 ft 506 kts 63°
2026-05-06 18:03 59.81911 7.16985 28767 ft 510 kts 63°
2026-05-06 18:03 59.83440 7.23367 28882 ft 511 kts 63°
2026-05-06 18:03 59.84967 7.29754 28955 ft 512 kts 64°
2026-05-06 18:04 59.88024 7.42596 29020 ft 513 kts 64°
2026-05-06 18:04 59.91067 7.55467 29021 ft 513 kts 64°
2026-05-06 18:05 59.94076 7.68270 29018 ft 513 kts 64°
2026-05-06 18:05 59.97102 7.81231 29020 ft 515 kts 64°
2026-05-06 18:06 60.00116 7.94210 29014 ft 514 kts 64°
2026-05-06 18:06 60.03129 8.07256 29003 ft 518 kts 65°
2026-05-06 18:07 60.06131 8.20346 29017 ft 518 kts 65°
2026-05-06 18:07 60.09125 8.33471 28996 ft 518 kts 65°
2026-05-06 18:08 60.12104 8.46623 29006 ft 517 kts 65°
2026-05-06 18:08 60.13584 8.53185 28843 ft 516 kts 65°
2026-05-06 18:08 60.15044 8.59684 28379 ft 514 kts 65°
2026-05-06 18:09 60.16513 8.66242 27882 ft 508 kts 65°
2026-05-06 18:09 60.17951 8.72682 27422 ft 502 kts 65°
2026-05-06 18:09 60.19375 8.79082 26940 ft 500 kts 65°
2026-05-06 18:09 60.20773 8.85383 26452 ft 497 kts 65°
2026-05-06 18:10 60.22172 8.91708 25985 ft 493 kts 65°
2026-05-06 18:10 60.23552 8.97967 25510 ft 487 kts 64°
2026-05-06 18:10 60.24916 9.04168 25063 ft 482 kts 64°
2026-05-06 18:10 60.26243 9.10223 24604 ft 463 kts 64°
2026-05-06 18:11 60.27512 9.16030 24152 ft 445 kts 64°
2026-05-06 18:11 60.28755 9.21729 23721 ft 444 kts 64°
2026-05-06 18:11 60.29996 9.27424 23254 ft 442 kts 64°
2026-05-06 18:11 60.31228 9.33091 22726 ft 438 kts 64°
2026-05-06 18:12 60.32388 9.38740 22223 ft 435 kts 70°
2026-05-06 18:12 60.33211 9.44523 21685 ft 432 kts 74°
2026-05-06 18:12 60.34014 9.50411 21196 ft 427 kts 74°
2026-05-06 18:12 60.34803 9.56148 20711 ft 423 kts 74°
2026-05-06 18:13 60.35585 9.61851 20239 ft 419 kts 74°
2026-05-06 18:13 60.36356 9.67498 19784 ft 417 kts 74°
2026-05-06 18:13 60.37110 9.73052 19319 ft 413 kts 74°
2026-05-06 18:13 60.37865 9.78622 18871 ft 409 kts 75°
2026-05-06 18:14 60.38383 9.84261 18413 ft 405 kts 82°
2026-05-06 18:14 60.38818 9.89903 18020 ft 406 kts 82°
2026-05-06 18:14 60.39239 9.95531 17503 ft 400 kts 82°
2026-05-06 18:14 60.39634 10.00992 16999 ft 385 kts 83°
2026-05-06 18:15 60.40004 10.06269 16510 ft 370 kts 83°
2026-05-06 18:15 60.40353 10.11334 16023 ft 357 kts 83°
2026-05-06 18:15 60.40686 10.16214 15528 ft 345 kts 83°
2026-05-06 18:15 60.41011 10.20993 15063 ft 347 kts 84°
2026-05-06 18:16 60.41333 10.25769 14601 ft 338 kts 84°
2026-05-06 18:16 60.41645 10.30414 14146 ft 331 kts 84°
2026-05-06 18:16 60.41950 10.35007 13693 ft 326 kts 84°
2026-05-06 18:16 60.42248 10.39508 13191 ft 320 kts 84°
2026-05-06 18:17 60.42540 10.43956 12692 ft 317 kts 84°
2026-05-06 18:17 60.42810 10.48371 12199 ft 313 kts 84°
2026-05-06 18:17 60.43102 10.52649 11716 ft 309 kts 83°
2026-05-06 18:17 60.43408 10.56947 11241 ft 305 kts 83°
2026-05-06 18:18 60.43698 10.61165 10772 ft 301 kts 84°
2026-05-06 18:18 60.43974 10.65341 10311 ft 297 kts 84°
2026-05-06 18:18 60.44238 10.69468 9855 ft 294 kts 84°
2026-05-06 18:18 60.44493 10.73541 9359 ft 290 kts 84°
2026-05-06 18:19 60.44743 10.77587 8863 ft 287 kts 84°
2026-05-06 18:19 60.44986 10.81548 8376 ft 279 kts 84°
2026-05-06 18:19 60.45220 10.85378 7899 ft 271 kts 83°
2026-05-06 18:19 60.45448 10.89125 7427 ft 265 kts 83°
2026-05-06 18:20 60.45670 10.92792 6960 ft 259 kts 83°
2026-05-06 18:20 60.45883 10.96332 6505 ft 255 kts 83°
2026-05-06 18:20 60.46099 10.99917 6239 ft 255 kts 83°
2026-05-06 18:20 60.46211 11.03508 6038 ft 256 kts 98°
2026-05-06 18:21 60.45586 11.06824 5741 ft 254 kts 127°
2026-05-06 18:21 60.44258 11.09069 5421 ft 248 kts 158°
2026-05-06 18:21 60.42678 11.10253 5408 ft 245 kts 154°
2026-05-06 18:21 60.41324 11.12469 5426 ft 251 kts 130°
2026-05-06 18:22 60.40494 11.15557 5467 ft 253 kts 108°
2026-05-06 18:22 60.40169 11.19046 5526 ft 253 kts 105°
2026-05-06 18:22 60.39328 11.22109 5582 ft 251 kts 136°
2026-05-06 18:22 60.37861 11.23919 5509 ft 247 kts 166°
2026-05-06 18:23 60.36176 11.24452 5209 ft 245 kts 168°
2026-05-06 18:23 60.34669 11.26043 4888 ft 248 kts 139°
2026-05-06 18:23 60.33729 11.28903 4532 ft 250 kts 109°
2026-05-06 18:23 60.33591 11.32370 4205 ft 249 kts 78°
2026-05-06 18:24 60.34215 11.35591 4114 ft 251 kts 64°
2026-05-06 18:24 60.34945 11.38750 4018 ft 246 kts 64°
2026-05-06 18:24 60.35669 11.41887 4011 ft 248 kts 64°
2026-05-06 18:24 60.36399 11.45053 4010 ft 248 kts 64°
2026-05-06 18:25 60.37125 11.48205 4012 ft 247 kts 64°
2026-05-06 18:25 60.37852 11.51362 4015 ft 248 kts 64°
2026-05-06 18:25 60.38578 11.54521 4014 ft 249 kts 64°
2026-05-06 18:25 60.39308 11.57696 4012 ft 248 kts 64°
2026-05-06 18:26 60.40196 11.60631 4006 ft 242 kts 43°
2026-05-06 18:26 60.41599 11.62269 4010 ft 233 kts 11°
2026-05-06 18:26 60.43201 11.62331 4011 ft 231 kts 353°
2026-05-06 18:26 60.44781 11.62054 4010 ft 230 kts 353°
2026-05-06 18:27 60.46373 11.61776 4012 ft 229 kts 353°
2026-05-06 18:27 60.47937 11.61504 4013 ft 229 kts 353°
2026-05-06 18:27 60.49534 11.61225 4010 ft 229 kts 353°
2026-05-06 18:27 60.51128 11.60949 4014 ft 229 kts 353°
2026-05-06 18:28 60.52716 11.60673 4012 ft 229 kts 353°
2026-05-06 18:28 60.54309 11.60396 4012 ft 228 kts 353°
2026-05-06 18:28 60.55885 11.60122 4012 ft 228 kts 353°
2026-05-06 18:28 60.57465 11.59847 4012 ft 228 kts 353°
2026-05-06 18:29 60.59049 11.59572 4014 ft 228 kts 353°
2026-05-06 18:29 60.60644 11.59278 4013 ft 229 kts 349°
2026-05-06 18:29 60.62057 11.58036 4016 ft 225 kts 318°
2026-05-06 18:29 60.62925 11.55402 4014 ft 223 kts 285°
2026-05-06 18:30 60.63123 11.52317 4011 ft 223 kts 275°
2026-05-06 18:30 60.63260 11.49163 4016 ft 224 kts 275°
2026-05-06 18:30 60.63395 11.46021 4010 ft 222 kts 275°
2026-05-06 18:30 60.63531 11.42882 4011 ft 223 kts 275°
2026-05-06 18:31 60.63667 11.39746 4011 ft 223 kts 275°
2026-05-06 18:31 60.63803 11.36596 4009 ft 224 kts 275°
2026-05-06 18:31 60.63939 11.33446 4012 ft 223 kts 275°
2026-05-06 18:31 60.64075 11.30287 4007 ft 223 kts 275°
2026-05-06 18:32 60.64211 11.27143 4014 ft 223 kts 275°
2026-05-06 18:32 60.64346 11.23990 4011 ft 223 kts 275°
2026-05-06 18:32 60.64481 11.20842 4007 ft 223 kts 275°
2026-05-06 18:32 60.64613 11.17694 4007 ft 223 kts 272°
2026-05-06 18:33 60.64310 11.14637 4008 ft 224 kts 242°
2026-05-06 18:33 60.63245 11.12358 4012 ft 225 kts 216°
2026-05-06 18:33 60.61971 11.10551 4004 ft 225 kts 216°
2026-05-06 18:33 60.60683 11.08724 4007 ft 226 kts 216°
2026-05-06 18:34 60.59392 11.06894 4010 ft 226 kts 216°
2026-05-06 18:34 60.57994 11.05469 4008 ft 228 kts 193°
2026-05-06 18:34 60.56402 11.05125 4012 ft 231 kts 186°
2026-05-06 18:34 60.54803 11.04849 4007 ft 230 kts 186°
2026-05-06 18:35 60.53204 11.04575 4008 ft 230 kts 186°
2026-05-06 18:35 60.51618 11.04771 4008 ft 233 kts 162°
2026-05-06 18:35 60.50280 11.06590 4008 ft 235 kts 130°
2026-05-06 18:35 60.49588 11.09536 4007 ft 237 kts 105°
2026-05-06 18:36 60.49167 11.12761 4005 ft 234 kts 105°
2026-05-06 18:36 60.48749 11.15961 4006 ft 235 kts 105°
2026-05-06 18:36 60.48317 11.19142 4006 ft 233 kts 111°
2026-05-06 18:36 60.47396 11.21785 4010 ft 231 kts 143°
2026-05-06 18:37 60.45952 11.23035 4007 ft 227 kts 176°
2026-05-06 18:37 60.44915 11.22993 4008 ft 222 kts 187°
2026-05-06 18:37 60.42867 11.22628 4007 ft 220 kts 187°
2026-05-06 18:37 60.41360 11.22359 4005 ft 219 kts 187°
2026-05-06 18:38 60.39837 11.22090 4002 ft 218 kts 187°
2026-05-06 18:38 60.38368 11.21831 3999 ft 204 kts 187°
2026-05-06 18:38 60.36924 11.21576 4002 ft 210 kts 187°
2026-05-06 18:38 60.35474 11.21320 3999 ft 209 kts 187°
2026-05-06 18:39 60.34033 11.21067 3843 ft 207 kts 187°
2026-05-06 18:39 60.32596 11.20547 3437 ft 211 kts 197°
2026-05-06 18:39 60.31215 11.19624 3152 ft 203 kts 202°
2026-05-06 18:40 60.28654 11.17651 2696 ft 218 kts 202°
2026-05-06 18:40 60.27209 11.16603 2421 ft 222 kts 201°
2026-05-06 18:40 60.25764 11.15674 2193 ft 210 kts 197°
2026-05-06 18:40 60.24420 11.14933 1910 ft 189 kts 199°
2026-05-06 18:41 60.23608 11.14405 1754 ft 183 kts 200°
2026-05-06 18:41 60.22403 11.13637 1500 ft 181 kts 199°
2026-05-06 18:41 60.21216 11.12926 1262 ft 179 kts 199°
2026-05-06 18:41 60.19631 11.11974 774 ft 172 kts 197°
2026-05-06 18:42 60.18916 11.11558 687 ft 144 kts 200°
2026-05-06 18:42 60.18267 11.11200 682 ft 59 kts 199°
2026-05-06 18:42 60.18081 11.10991 676 ft 13 kts 218°
2026-05-06 18:42 60.18040 11.10869 681 ft 13 kts 260°
2026-05-06 18:43 60.18041 11.10799 679 ft 0 kts 275°
2026-05-06 18:43 60.18042 11.10772 678 ft 7 kts 276°
2026-05-06 18:43 60.18072 11.10684 676 ft 8 kts 352°
2026-05-06 18:43 60.18143 11.10709 677 ft 13 kts 14°
2026-05-06 18:44 60.18243 11.10765 678 ft 17 kts 16°
2026-05-06 18:44 60.18372 11.10840 680 ft 21 kts 16°
2026-05-06 18:44 60.18526 11.10926 682 ft 25 kts 15°
2026-05-06 18:44 60.18704 11.11031 683 ft 28 kts 17°
2026-05-06 18:45 60.18904 11.11148 682 ft 32 kts 16°
2026-05-06 18:45 60.19125 11.11279 680 ft 35 kts 16°
2026-05-06 18:45 60.19320 11.11394 682 ft 17 kts 19°
2026-05-06 18:45 60.19418 11.11448 682 ft 13 kts
2026-05-06 18:46 60.19480 11.11323 679 ft 15 kts 287°
2026-05-06 18:46 60.19516 11.11083 681 ft 20 kts 287°
2026-05-06 18:46 60.19557 11.10791 679 ft 24 kts 286°
2026-05-06 18:46 60.19607 11.10446 684 ft 27 kts 285°
2026-05-06 18:47 60.19642 11.10199 682 ft 6 kts 287°
2026-05-06 18:47 60.19642 11.10197 682 ft 0 kts 287°